CW5302 Weather Reports


Display with metric or nautical units.
time (UTC)temp
F
wind
direction
speed
MPH
gust
MPH
rain 1hr
in
rain 24hr
in
rain mn
in
humidity
%
barometer
mb
20260505211337 68 336 2.0 7.0 0.00 0.00 0.00 62 1011.9
20260505210329 68 34 2.0 8.0 0.00 0.00 0.00 62 1011.9
20260505205326 68 5 2.0 6.0 0.00 0.00 0.00 62 1011.9
20260505204321 67 86 0.0 2.0 0.00 0.00 0.00 67 1012.0
20260505203316 66 144 0.0 4.0 0.00 0.00 0.00 67 1012.0
20260505202332 66 120 0.0 7.0 0.00 0.00 0.00 67 1012.4
20260505201327 65 5 2.0 5.0 0.00 0.00 0.00 64 1012.5
20260505200319 65 46 0.0 3.0 0.00 0.00 0.00 66 1012.5
20260505195353 65 181 0.0 4.0 0.00 0.00 0.00 66 1012.4
20260505194343 64 294 0.0 4.0 0.00 0.00 0.00 68 1012.4
20260505193336 64 321 1.0 4.0 0.00 0.00 0.00 67 1012.4
20260505192345 64 263 0.0 4.0 0.00 0.00 0.00 68 1012.5
20260505191320 63 240 1.0 3.0 0.00 0.00 0.00 69 1012.5
20260505190331 63 330 0.0 2.0 0.00 0.00 0.00 70 1012.5
20260505185323 62 329 0.0 5.0 0.00 0.00 0.00 69 1012.5
20260505184356 62 329 0.0 4.0 0.00 0.00 0.00 71 1012.5
20260505183326 62 328 0.0 3.0 0.00 0.00 0.00 71 1012.5
20260505182338 62 322 0.0 0.0 0.00 0.00 0.00 72 1012.5
20260505181331 61 345 0.0 0.0 0.00 0.00 0.00 73 1012.5
20260505180327 61 345 0.0 0.0 0.00 0.00 0.00 74 1012.5
20260505175317 61 345 0.0 0.0 0.00 0.00 0.00 73 1012.4
20260505174331 61 345 0.0 0.0 0.00 0.00 0.00 71 1012.5
20260505173328 60 345 0.0 0.0 0.00 0.00 0.00 73 1012.5
20260505172342 60 345 0.0 0.0 0.00 0.00 0.00 75 1012.5
20260505171319 60 345 1.0 4.0 0.00 0.00 0.00 76 1012.5
20260505170330 59 304 0.0 1.0 0.00 0.00 0.00 74 1012.5
20260505165321 59 227 0.0 0.0 0.00 0.00 0.00 76 1012.5
20260505164334 58 205 0.0 0.0 0.00 0.00 0.00 75 1012.5
20260505163328 58 205 0.0 0.0 0.00 0.00 0.00 75 1012.5
20260505162325 58 252 0.0 2.0 0.00 0.00 0.00 76 1012.5
20260505161320 58 244 0.0 0.0 0.00 0.00 0.00 78 1012.5
20260505160322 58 244 0.0 0.0 0.00 0.00 0.00 79 1012.5
20260505153321 56 243 0.0 0.0 0.00 0.00 0.00 83 1012.5
20260505152315 56 243 0.0 0.0 0.00 0.00 0.00 83 1012.5
20260505151320 56 239 0.0 1.0 0.00 0.00 0.00 84 1012.5
20260505150331 56 298 0.0 3.0 0.00 0.00 0.00 84 1012.5
20260505140329 55 290 0.0 0.0 0.00 0.00 0.00 88 1012.3
20260505124327 55 290 0.0 0.0 0.00 0.00 0.00 87 1011.7
20260505123318 55 290 0.0 0.0 0.00 0.00 0.00 86 1011.7
20260505122329 55 290 0.0 0.0 0.00 0.00 0.00 86 1011.5
20260505121327 55 290 0.0 0.0 0.00 0.00 0.00 86 1011.5
20260505120327 55 290 0.0 0.0 0.00 0.00 0.00 86 1011.5
20260505115324 55 290 0.0 0.0 0.00 0.00 0.00 85 1011.4
20260505114335 55 290 0.0 0.0 0.00 0.00 0.00 86 1011.4
20260505113327 55 290 0.0 0.0 0.00 0.00 0.00 85 1011.4
20260505112317 55 312 0.0 0.0 0.00 0.00 0.00 85 1011.4
20260505111332 55 312 0.0 0.0 0.00 0.00 0.00 85 1011.2
20260505110325 55 311 0.0 1.0 0.00 0.00 0.00 85 1011.2
20260505101334 56 58 0.0 0.0 0.00 0.00 0.00 85 1011.1
20260505100326 56 58 0.0 0.0 0.00 0.00 0.00 85 1011.1
20260505095337 56 59 0.0 0.0 0.00 0.00 0.00 85 1011.1
20260505094329 56 59 0.0 0.0 0.00 0.00 0.00 84 1011.1
20260505093324 56 13 0.0 0.0 0.00 0.00 0.00 83 1011.1
20260505092334 56 13 0.0 2.0 0.00 0.00 0.00 82 1011.1
20260505091348 56 11 0.0 0.0 0.00 0.00 0.00 82 1011.1
20260505090319 56 11 0.0 0.0 0.00 0.00 0.00 82 1011.1
20260505085327 56 10 0.0 4.0 0.00 0.00 0.00 82 1011.1
20260505084358 57 40 0.0 0.0 0.00 0.00 0.00 82 1011.2
20260505083328 57 71 0.0 0.0 0.00 0.00 0.00 82 1011.2
20260505082319 57 71 0.0 0.0 0.00 0.00 0.00 81 1011.3
20260505081330 57 71 0.0 0.0 0.00 0.00 0.00 81 1011.3
20260505080321 57 74 0.0 0.0 0.00 0.00 0.00 81 1011.3
20260505075319 57 337 0.0 0.0 0.00 0.00 0.00 80 1011.4
20260505074333 57 337 0.0 1.0 0.00 0.00 0.00 79 1011.4
20260505073328 57 304 0.0 0.0 0.00 0.00 0.00 79 1011.4
20260505072323 57 304 0.0 2.0 0.00 0.00 0.00 78 1011.4
20260505071334 57 307 0.0 0.0 0.00 0.00 0.00 78 1011.4
20260505070349 58 305 0.0 0.0 0.00 0.00 0.00 78 1011.4
20260505065319 58 304 0.0 2.0 0.00 0.00 0.00 78 1011.4
20260505064331 58 294 0.0 1.0 0.00 0.00 0.00 78 1011.4
20260505063327 58 301 0.0 3.0 0.00 0.00 0.00 78 1011.4
20260505062340 58 302 0.0 0.0 0.00 0.00 0.00 78 1011.2
20260505061335 58 336 0.0 3.0 0.00 0.00 0.00 78 1011.0
20260505060326 58 297 0.0 1.0 0.00 0.00 0.00 78 1011.0
20260505055317 58 63 0.0 2.0 0.00 0.00 0.00 78 1010.9
20260505054328 58 322 0.0 3.0 0.00 0.00 0.00 78 1010.9
20260505053323 58 291 0.0 4.0 0.00 0.00 0.00 78 1010.9
20260505052316 58 338 1.0 6.0 0.00 0.00 0.00 78 1010.9
20260505051332 58 319 0.0 2.0 0.00 0.00 0.00 78 1010.9
20260505050327 58 24 0.0 3.0 0.00 0.00 0.00 78 1010.9
20260505041334 58 355 0.0 0.0 0.00 0.00 0.00 78 1010.4
20260505040326 58 319 0.0 4.0 0.00 0.00 0.00 78 1010.4
20260505035338 59 355 0.0 0.0 0.00 0.00 0.00 78 1010.1
20260505034330 59 22 0.0 4.0 0.00 0.00 0.00 78 1009.9
20260505033321 59 28 0.0 0.0 0.00 0.00 0.00 77 1009.9
20260505032331 59 33 0.0 2.0 0.00 0.00 0.00 78 1009.8
20260505031321 60 279 0.0 3.0 0.00 0.00 0.00 76 1009.4
20260505030315 60 302 2.0 7.0 0.00 0.00 0.00 75 1009.4
20260505025331 60 286 1.0 6.0 0.00 0.00 0.00 74 1009.3
20260505024321 61 11 1.0 7.0 0.00 0.00 0.00 74 1009.3
20260505023332 62 360 4.0 10.0 0.00 0.00 0.00 72 1009.3
20260505022322 62 28 1.0 10.0 0.00 0.00 0.00 71 1009.3
20260505021333 63 355 3.0 7.0 0.00 0.00 0.00 70 1009.2
20260505020326 63 297 2.0 12.0 0.00 0.00 0.00 68 1009.2
20260505015318 65 30 4.0 9.0 0.00 0.00 0.00 66 1008.9
20260505014332 66 296 2.0 10.0 0.00 0.00 0.00 64 1008.8
20260505013323 66 318 2.0 8.0 0.00 0.00 0.00 63 1008.8
20260505012340 67 335 5.0 11.0 0.00 0.00 0.00 62 1008.8
20260505011331 68 294 4.0 12.0 0.00 0.00 0.00 61 1008.8
20260505010328 68 289 2.0 9.0 0.00 0.00 0.00 60 1008.8
20260505005320 69 321 2.0 9.0 0.00 0.00 0.00 60 1008.8
20260505004336 69 300 1.0 9.0 0.00 0.00 0.00 61 1008.7
20260505003327 69 327 2.0 10.0 0.00 0.00 0.00 59 1008.7
20260505002322 70 15 3.0 11.0 0.00 0.00 0.00 59 1008.7
20260505001313 70 329 5.0 13.0 0.00 0.00 0.00 58 1008.7
20260505000331 71 350 4.0 11.0 0.00 0.00 0.00 57 1008.7
20260504235322 71 350 3.0 10.0 0.00 0.00 0.00 56 1008.8
20260504234335 71 348 3.0 10.0 0.00 0.00 0.00 58 1008.8
20260504233329 71 332 5.0 14.0 0.00 0.00 0.00 58 1008.8
20260504232320 71 337 4.0 10.0 0.00 0.00 0.00 59 1008.8
20260504231336 72 277 4.0 11.0 0.00 0.00 0.00 56 1008.8
20260504230328 72 5 2.0 8.0 0.00 0.00 0.00 59 1008.8
20260504225320 72 32 2.0 7.0 0.00 0.00 0.00 59 1008.8
20260504224321 71 17 3.0 9.0 0.00 0.00 0.00 60 1008.9
20260504223336 71 342 2.0 8.0 0.00 0.00 0.00 58 1008.9
20260504222347 71 12 1.0 7.0 0.00 0.00 0.00 62 1009.2
20260504221319 71 280 0.0 8.0 0.00 0.00 0.00 60 1009.4
20260504220358 70 360 0.0 6.0 0.00 0.00 0.00 60 1009.4
20260504215327 70 322 2.0 6.0 0.00 0.00 0.00 62 1009.5
20260504214320 70 39 3.0 8.0 0.00 0.00 0.00 62 1009.6
20260504213316 69 319 4.0 8.0 0.00 0.00 0.00 61 1009.6
20260504212329 69 77 1.0 7.0 0.00 0.00 0.00 66 1009.8